Regional Weather Roundup
Issued by NWS Charleston, SC

Current Version | Previous Version | Graphics & Text | Print | Product List | Glossary On
Versions: 1 2 3 4 5 6 7 8 9 10 11 12 13 14 15 16 17 18 19 20 21 22 23 24 25 26 27 28 29 30 31 32 33 34 35 36 37 38 39 40 41 42 43 44 45 46 47 48 49 50
000 ASUS42 KCHS 041527 RWRCHS REGIONAL WEATHER ROUNDUP NATIONAL WEATHER SERVICE CHARLESTON SC 1100 AM EDT FRI SEP 04 2015 NOTE: "FAIR" INDICATES FEW OR NO CLOUDS BELOW 12,000 FEET WITH NO SIGNIFICANT WEATHER AND/OR OBSTRUCTIONS TO VISIBILITY. NOT ALL STATIONS ARE QUALITY CONTROLLED BY THE NATIONAL WEATHER SERVICE. USE DATA WITH CAUTION...ESPECIALLY DEWPOINT OBSERVATIONS. SCZ027-030-031-034>040-042>050-041600- ...SOUTHEAST SOUTH CAROLINA... CITY SKY/WX TMP DP RH WIND PRES REMARKS N CHARLESTON SUNNY 88 73 61 NE3 29.97S HX 95 WATERFRONT PRK N/A 85 77 76 N7 29.95R HX 95 MOUNT PLEASANT FAIR 88 75 66 N3 29.97S HX 97 JOHNS ISLAND FAIR 90 73 58 N5 29.97S HX 98 PINOPOLIS N/A 88 77 70 CALM 29.91R HX 100 MONCKS CORNER FAIR 88 73 62 N3 29.98S HX 96 SUMMERVILLE FAIR 90 73 58 N5 29.99R HX 98 BEAUFORT MCAS SUNNY 90 75 61 VRB5 29.97S HX 100 BEAUFORT ARPT FAIR 88 77 70 NE3 29.97S HX 100 HILTON HEAD IS SUNNY 86 75 70 N5 29.99R HX 95 WALTERBORO SUNNY 90 72 55 W3 29.99S HX 96 ALLENDALE FAIR 88 73 62 CALM 29.98S HX 96 ...SOUTHERN MIDLANDS AND PEE DEE... CITY SKY/WX TMP DP RH WIND PRES REMARKS GEORGETOWN NOT AVBL KINGSTREE NOT AVBL ORANGEBURG SUNNY 88 73 61 VRB3 29.98S HX 95 BARNWELL FAIR 90 73 58 CALM 29.99S HX 98 AIKEN FAIR 88 63 42 N9 30.03S MANNING FAIR 86 70 58 N5 29.98S HX 90 COLUMBIA SUNNY 88 73 61 VRB3 29.98S HX 95 SUMTER SUNNY 86 73 66 N3 29.97R HX 93 FLORENCE SUNNY 86 73 65 CALM 29.99R HX 93 MYRTLE BEACH SUNNY 86 72 62 VRB5 30.00R HX 92 N MYRTLE BEACH SUNNY 86 74 67 NE5 29.98R HX 94 $$ GAZ063-065-086>088-099>101-113>116-118-119-134>141-150-041600- ...SOUTHEAST GEORGIA... CITY SKY/WX TMP DP RH WIND PRES REMARKS SAVANNAH ARPT PTSUNNY 88 74 63 N5 29.98R HX 96 HUNTER AAF MOSUNNY 87 80 78 VRB3 29.96R HX 103 FORT STEWART MOSUNNY 87 76 69 CALM 29.97R HX 97 STATESBORO MOSUNNY 87 77 72 N3 29.99R HX 100 SYLVANIA NOT AVBL CLAXTON NOT AVBL ...CSRA...CENTRAL AND FAR SOUTHEAST GEORGIA... CITY SKY/WX TMP DP RH WIND PRES REMARKS THOMSON SUNNY 88 77 69 CALM 30.05R HX 99 AUGUSTA-BUSH SUNNY 87 74 64 CALM 29.97S HX 95 AUGUSTA-DANIEL SUNNY 89 74 60 N5 30.00S HX 98 SWAINSBORO FAIR 88 73 62 CALM 30.00S HX 96 VIDALIA SUNNY 86 73 66 N5 30.00S HX 93 EASTMAN FAIR 87 75 68 NW3 30.02S HX 97 HAZLEHURST FAIR 88 77 69 CALM 29.99R HX 99 ALMA MOSUNNY 88 73 61 CALM 29.99R HX 95 WAYCROSS MOSUNNY 89 79 72 CALM 29.99S HX 104 JESUP FAIR 90 77 66 CALM 29.99R HX 102 BAXLEY FAIR 90 75 62 CALM 29.99R HX 100 BRUNSWICK SUNNY 88 73 62 CALM 29.99S HX 96 SAINT SIMONS SUNNY 87 74 64 N7 29.98S HX 95 $$ SCZ027-028-034-036>038-045-046-048>050-GAZ119-141-041600- ...LAKE AND SUPPLEMENTAL COASTAL OBSERVATIONS... STATION/POSITION TIME TEMP WIND PRES WAVE SWELL AIR SEA DIR/SP/G HT/PER HT/PER/DIR (UTC) (F) (DEG/KT/KT) (MB) (FT/S) (FT/S/D) UPR LAKE MARION NOT AVBL WINYAH BAY 1445 85 360/ 3 1014.0S LAKE MURRAY 1400 82 20/ 1/ 3 1014.9S ACE BASIN NERRS NOT AVBL FORT PULASKI 1500 85 83 60/ 2/ 3 1015.6R SAPELO ISLAND 1500 89 320/ 2 1015.0S $$ ANZ835-935-AMZ111-154-330-350-352-354-370-450-454-472-041600- ...C-MAN AND BUOY OBSERVATIONS... STATION/POSITION TIME TEMP WIND PRES WAVE SWELL AIR SEA DIR/SP/G HT/PER HT/PER/DIR (UTC) (F) (DEG/KT/KT) (MB) (FT/S) (FT/S/D) BUOY 41004 1450 82 84 360/ 6/ 8 1014.7R 1/ 9 2/ 9 BUOY 41008 1450 82 84 340/ 6/ 6 1015.5R 1/ 8 2/130/ 8 FOLLY BEACH CMAN 1500 86 40/ 6/ 6 1015.1R CAPERS NEARSHORE 1408 82 340/ 4/ 6 1015.0R FRIPP NEARSHORE 1400 84 10/ 4/ 4 1014.6R STATION/POSITION TIME TEMP WIND PRES WAVE SWELL AIR SEA DIR/SP/G HT/PER HT/PER/DIR (UTC) (F) (DEG/KT/KT) (MB) (FT/S) (FT/S/D) 5E ST. MARYS GA 1421 85 N/A 1/ 9 FRYING PAN BUOY 1450 81 82 30/ 8/ 8 1015.5R 1/ 3 BUOY 41025 1450 82 84 350/ 8/ 10 1014.9R 1/12 2/ 60/12 CAPE LOOKOUT NC 1500 84 340/ 6/ 6 1015.0R BUOY 41002 1450 83 84 10/ 8/ 10 1014.5R 2/11 2/ 30/11 BUOY 41010 1420 81 85 240/ 6/ 8 1015.5R ST AUGUSTINE FL 1500 83 84 360/ 7/ 8 1016.5R $$

USA.gov is the U.S. government's official web portal to all federal, state and local government web resources and services.